Regional Weather Roundup
Issued by NWS

Home | Current Version | Previous Version | Text Only | Print | Product List | Glossary Off
Versions: 1 2 3 4 5 6 7 8 9 10 11 12 13 14 15 16 17 18 19 20 21 22 23 24 25 26 27 28 29 30 31 32 33 34 35 36 37 38 39 40 41 42 43 44 45 46 47 48 49 50

470
ASUS44 KMEG 042310
RWRTN
TENNESSEE HOURLY STATE WEATHER ROUNDUP
NATIONAL WEATHER SERVICE MEMPHIS TN
500 PM CST SUN DEC 04 2016

TNZ002-004-019-021-049-052-054-088>092-050000-
WEST TENNESSEE

CITY           SKY/WX    TMP DP  RH WIND       PRES   REMARKS
MEMPHIS INTL   CLOUDY    46  44  93 NW6       30.00R
NWS MEMPHIS      N/A     46 N/A N/A MISG        N/A
JACKSON        CLOUDY    46  45  96 NW6       29.99R
DYERSBURG      CLOUDY   N/A N/A N/A W5        29.98S
UNION CITY     CLOUDY    43  43 100 W3        29.96S
PARIS          CLOUDY    43  41  93 CALM      29.97S
HUNTINGDON     CLOUDY    45  45 100 CALM      29.97R
LEXINGTON      CLOUDY    46  46 100 W3        29.97R
$$

TNZ008-025-027-028-033-062-065-066-050000-
NORTH MIDDLE TENNESSEE

CITY           SKY/WX    TMP DP  RH WIND       PRES   REMARKS
NASHVILLE      DRIZZLE   48  46  93 CALM      29.97R FOG
PORTLAND       CLOUDY    46  46 100 SW6       29.95R FOG
CLARKSVILLE    CLOUDY    46  43  89 W6        29.96S
SMYRNA         CLOUDY    48  46  93 W3        29.98R
CROSSVILLE     CLOUDY    45  43  93 S8        29.95R FOG
$$

TNZ061-075-076-078-094-096-097-050000-
SOUTH MIDDLE TENNESSEE

CITY           SKY/WX    TMP DP  RH WIND       PRES   REMARKS
FAYETTEVILLE   CLOUDY    46  46 100 S10       29.96R FOG
TULLAHOMA      CLOUDY    46  46 100 SW5       29.97R
WINCHESTER     CLOUDY    46  45  93 CALM      29.97R
MCMINNVILLE    CLOUDY    46  46 100 CALM      29.96R
COLUMBIA       CLOUDY   N/A N/A N/A CALM      29.95R
SHELBYVILLE    CLOUDY    48  48 100 CALM      29.97R
$$

TNZ017-018-042-046-047-050000-
NORTHEAST TENNESSEE

CITY           SKY/WX    TMP DP  RH WIND       PRES   REMARKS
TRI CITIES     CLOUDY    46  43  89 E5        29.98F
ELIZABETHTON   DRIZZLE   46  43  87 VRB7      29.99F
$$

TNZ012-013-036-069-073-074-050000-
CENTRAL EAST TENNESSEE

CITY           SKY/WX    TMP DP  RH WIND       PRES   REMARKS
KNOXVILLE      LGT RAIN  44  42  93 N5        29.96S FOG
DOWNTOWN KNOXV CLOUDY    46  46 100 CALM      29.97S FOG
GATLINBURG     CLOUDY    43  43 100 CALM      29.96S
MORRISTOWN     CLOUDY    46  45  93 NE3       29.95S
JACKSBORO      CLOUDY    45  45 100 VRB5      29.97F
$$

TNZ083-085-099-050000-
SOUTHEAST TENNESSEE

CITY           SKY/WX    TMP DP  RH WIND       PRES   REMARKS
CHATTANOOGA    CLOUDY    46  44  93 SW5       30.00S FOG
$$

SKY/WX REPORTED AS FAIR MEANS FEW OR NO CLOUDS BELOW
12 THOUSAND FEET.





USA.gov is the U.S. government's official web portal to all federal, state and local government web resources and services.